Location: Hurstbourne Priors
(51.2000°N, 1.3667°W)
Time: 05:30:29
(UTC+00:00)

STARLINK-1225 - Pass Details

Date: 09 April 2020
Orbit: 549 x 550 km, 53.0° (Epoch: 29 May)

Event Time Altitude Azimuth Distance (km) Brightness Sun altitude
Rises 20:48:40 0° 290° (WNW) 2,728 8.6 -17.1°
Reaches altitude 10° 20:50:57 10° 284° (WNW) 1,831 7.3 -17.4°
Maximum altitude 20:54:57 46° 211° (SSW) 747 4.2 -17.9°
Enters shadow 20:56:06 35° 167° (SSE) 893 4.3 -18.0°
